DECAYED

CZ-4 DEB, 35323 (Decayed)

Orbit data source: Space-Track

CZ-4 DEB, 35323 was space debris in SSO originally from a launch on Thu, 14 Oct 1999 UTC launched from the Taiyaun Space Center, China (TSC). Debris objects in space refer to the collection of defunct objects orbiting the Earth. Examples of debris include non-operational satellites, rocket bodies, and fragments generated from explosions, collisions, or faulty payload assembly.

Not visible in the next 10 days
Identifier
35323, 1999-057SB
Orbit
Decayed
Country
Flag of CNCN / PRC
Related business
Manufacturer
Unknown
Mission
Decayed spacecraft
Bus & Motor
Unknown
Mass
Unknown
Launch date (UTC)
1999-10-14 (27 years ago)
Launch vehicle
Unknown
Launch site
Taiyaun Space Center, China (TSC)
Object type
Payload
Rocket body
Debris
Shape & HBR
Unknown shape, 0.1 m
Radar Cross Section
Small (<0.1 m²)

Expand to show TLE details & history
Last TLE update: 1 year ago

TLE from 1 year ago
0 CZ-4 DEB
1 35323U 99057SB  25044.45221542  .00510421  00000-0  10579-1 0  9992
2 35323  98.2521 118.7976 0023541 286.1106  73.7547 15.43541598619108
Epoch: 2025-02-13T10:51Z
TLE epoch observation values (Epoch: 2025-02-13T10:51:11.412Z)
Latitude
-0.00009°
Longitude
172.27193°
Altitude
434.31 km
Speed
7.654 km/s
True Right ascension
07h 55m 11s
True Declination
0° 00' 00"
Sunlit
Object was in full shadow at epoch
Visualization orbit readout
Latitude
Unknown
Longitude
Unknown
Altitude
Unknown
Speed
Unknown
Apparent Right ascension
Unknown
Apparent Declination
Unknown
Sunlit
N/A
Visualization observer readout
Local Sidereal Time
04:21:06
Azimuth
Unknown
Elevation
Unknown
Doppler factor
Unknown
Orbital elements
Apogee altitude
448.673 km
Perigee altitude
416.607 km
Semi-major axis
6,810.777 km
Eccentricity
0.00235
Inclination
98.2521°
RAAN
118.7976°
Arg. of periapsis
286.1106°
True anomaly
74.0139°
Mean anomaly
73.7547°
Eccentric anomaly
73.88428°
Mean motion
3.86143 °/min
Orbital period
93.23 mins
BSTAR
0.010579
Loading maneuver chart data...
Computing Atmospheric mass density...

Documentation

Showing up to 5 results
|